Location: Baumgarten
(49.0970°N, 12.7493°E)
Time: 16:40:29
(UTC+00:00)

ATLAS CENTAUR R/B - Pass Details

Date: 05 July 2020
Orbit: 475 x 672 km, 64.7° (Epoch: 13 July)

Event Time Altitude Azimuth Distance (km) Brightness Sun altitude
Rises 20:12:56 0° 323° (NW) 2,591 7.3 -7.7°
Reaches altitude 10° 20:15:12 10° 330° (NNW) 1,684 5.4 -8.0°
Maximum altitude 20:18:47 44° 44° (NE) 677 1.8 -8.3°
Enters shadow 20:22:16 10° 118° (ESE) 1,640 3.2 -8.7°
